User: anonymous   Login
Location: Stockholm
(59.3330°N, 18.0500°E)
Time: 16:36:48
(UTC+01:00)
Language:

Oscar 19 - Orbit

View from above orbital plane
View from above orbital plane
View from above satellite
View from above satellite

Ground track
Ground track

The orbit data is extracted from the following two-line orbital elements,

1 20442U 90005G   23079.44020895  .00000358  00000-0  14706-3 0  9996
2 20442  98.8353  54.1041 0012868  79.8916 280.3718 14.33201827732697
Epoch (UTC): 20 March 2023 10:33:54
Eccentricity: 0.0012868
inclination: 98.8353°
perigee height: 772 km
apogee height: 790 km
right ascension of ascending node: 54.1041°
argument of perigee: 79.8916°
revolutions per day: 14.33201827
mean anomaly at epoch: 280.3718°
orbit number at epoch: 73269

The dashed part of the orbit path shows where the satellite is in the earth's shadow,  

DLR